Hourly Data Report for February 26, 2017

All times are specified in Local Standard Time (LST). Add 1 hour to adjust for Daylight Saving Time where and when it is observed.

WEKWEETI A
NORTHWEST TERRITORIES

64°11'27.000" N
114°04'36.000" W
368.20 m
2203980
YWE

Related Data

No related data is available for this station

Download Data

Hourly Data (February 2017)
Hourly Data Report for February 26, 2017
Temp Definition
°C
Dew Point Temp Definition
°C
Rel Hum Definition
%
Wind Dir Definition
10's deg

Wind Spd Definition
km/h
Visibility Definition
km
Stn Press Definition
kPa
Hmdx Definition


Wind Chill Definition


Weather Definition


TIME
00:00 Legend Double Dagger -28.8 -32.2 73 36 18 8.1 97.41   -41 Snow
01:00 Legend Double Dagger -29.2 -32.5 74 2 11 12.9 97.47   -39 LegendNANA
02:00 Legend Double Dagger -30.2 -33.6 73 3 13 16.1 97.47   -41 LegendNANA
03:00 Legend Double Dagger -31.2 -34.6 73 6 9 16.1 97.47   -40 LegendNANA
04:00 Legend Double Dagger -32.2 -35.5 73 2 5 16.1 97.49   -38 LegendNANA
05:00 Legend Double Dagger -33.1 -36.4 73 5 8 16.1 97.47   -42 LegendNANA
06:00 Legend Double Dagger -33.8 -37.1 73 1 5 16.1 97.47   -40 LegendNANA
07:00 Legend Double Dagger -34.4 -37.7 73 8 5 16.1 97.43   -41 LegendNANA
08:00 Legend Double Dagger -35.0 -38.0 75 LegendMM 4 16.1 97.43   -40 LegendNANA
09:00 Legend Double Dagger -36.6 -40.1 71 8 9 16.1 97.40   -46 LegendNANA
10:00 Legend Double Dagger -34.0 -37.6 71 8 8 16.1 97.36   -43 LegendNANA
11:00 Legend Double Dagger -32.5 -36.3 70 9 8 16.1 97.32   -41 LegendNANA
12:00 Legend Double Dagger -30.6 -34.9 67 7 9 16.1 97.29   -39 LegendNANA
13:00 Legend Double Dagger -29.8 -34.3 66 8 9 16.1 97.26   -38 LegendNANA
14:00 Legend Double Dagger -29.1 -33.8 65 LegendMM 4 16.1 97.23   -34 LegendNANA
15:00 Legend Double Dagger -29.0 -33.7 65   0 16.1 97.21     LegendNANA
16:00 Legend Double Dagger -29.7 -34.2 66 10 5 16.1 97.13   -35 LegendNANA
17:00 Legend Double Dagger -30.6 -34.7 68 7 11 16.1 97.07   -40 LegendNANA
18:00 Legend Double Dagger -33.4 -36.8 72 8 9 16.1 97.03   -43 LegendNANA
19:00 Legend Double Dagger -34.2 -37.5 73 6 9 16.1 97.02   -44 LegendNANA
20:00 Legend Double Dagger -34.7 -38.0 73 6 9 16.1 97.00   -44 LegendNANA
21:00 Legend Double Dagger -35.5 -38.7 73 6 13 16.1 96.96   -47 LegendNANA
22:00 Legend Double Dagger -36.5 -39.9 72 6 11 16.1 96.94   -47 LegendNANA
23:00 Legend Double Dagger -37.6 -40.9 72 6 15 16.1 96.89   -51 LegendNANA

Notes on Data Quality.

Legend

  • E = Estimated
  • M = Missing
  • NA = Not Available
  • ‡ = Partner data that is not subject to review by the National Climate Archives
Date modified: